[TLELIST] Archives

 

[list_settings.list_name] Current TLEs

June 6th 2021 PST

HST 1 20580U 90037B 21156.69594659 .00000435 00000-0 15343-4 0 9994 2 20580 28.4689 142.8743 0002419 298.5107 224.5791 15.09652909509269 ISS (ZARYA) 1 25544U 98067A 21157.40657860 .00001627 00000-0 37740-4 0 9993 2 25544 51.6455 36.0491 0003637 69.8214 101.7315 15.48960059286922 CXO 1 25867U 99040B 21157.52868194 .00000424 00000-0 00000-0 0 9999 2 25867 55.3768 255.7242 8309140 226.3682 359.8273 0.37803345 10400 ____________________________________________________________________ These 2-Line ...Continue Reading

[list_settings.list_name] Current TLEs

June 5th 2021 PST

HST 1 20580U 90037B 21156.14581733 .00000435 00000-0 15341-4 0 9991 2 20580 28.4688 146.5144 0002406 291.7633 115.5842 15.09652635509395 ISS (ZARYA) 1 25544U 98067A 21156.30527927 .00003432 00000-0 70541-4 0 9993 2 25544 51.6455 41.4969 0003508 68.0432 78.3395 15.48957534286754 CXO 1 25867U 99040B 21157.52868194 .00000424 00000-0 00000-0 0 9999 2 25867 55.3768 255.7242 8309140 226.3682 359.8273 0.37803345 10400 ____________________________________________________________________ These 2-Line ...Continue Reading

[list_settings.list_name] Current TLEs

June 4th 2021 PST

HST 1 20580U 90037B 21154.71276941 .00000444 00000-0 15872-4 0 9993 2 20580 28.4687 155.9969 0002401 274.8449 248.8078 15.09652021508967 ISS (ZARYA) 1 25544U 98067A 21155.40535955 .00001433 00000-0 34222-4 0 9998 2 25544 51.6447 45.9470 0003515 62.2394 102.6737 15.48951571286613 CXO 1 25867U 99040B 21157.52831858 .00000424 00000-0 00000-0 0 9996 2 25867 55.3768 255.7243 8309148 226.3683 359.7773 0.37802922 10392 ____________________________________________________________________ These 2-Line ...Continue Reading

[list_settings.list_name] Current TLEs

June 3rd 2021 PST

HST 1 20580U 90037B 21153.72108117 .00000443 00000-0 15826-4 0 9990 2 20580 28.4686 162.5589 0002402 263.1467 260.2470 15.09651522509038 ISS (ZARYA) 1 25544U 98067A 21154.36309123 .00003567 00000-0 73001-4 0 9996 2 25544 51.6441 51.1050 0003507 57.2356 51.9327 15.48952752286458 CXO 1 25867U 99040B 21154.88501305 .00000455 00000-0 00000-0 0 9997 2 25867 55.4159 255.7995 8302647 226.3735 359.9405 0.37803999 10395 ____________________________________________________________________ These 2-Line ...Continue Reading

[list_settings.list_name] Current TLEs

June 2nd 2021 PST

HST 1 20580U 90037B 21152.59339934 .00000428 00000-0 14901-4 0 9993 2 20580 28.4686 170.0209 0002409 249.8648 252.7163 15.09650869508644 ISS (ZARYA) 1 25544U 98067A 21153.33610538 .00000648 00000-0 19959-4 0 9996 2 25544 51.6454 56.1809 0003452 55.5733 83.1214 15.48941137286297 CXO 1 25867U 99040B 21154.88501305 .00000455 00000-0 00000-0 0 9997 2 25867 55.4159 255.7995 8302647 226.3735 359.9405 0.37803999 10395 ____________________________________________________________________ These 2-Line ...Continue Reading

[list_settings.list_name] Current TLEs

June 1st 2021 PST

HST 1 20580U 90037B 21151.80363367 .00000432 00000-0 15149-4 0 9993 2 20580 28.4687 175.2468 0002424 240.7203 281.1778 15.09650434508526 ISS (ZARYA) 1 25544U 98067A 21152.11066515 .00000451 00000-0 16375-4 0 9992 2 25544 51.6453 62.2423 0003364 52.3737 88.5313 15.48937685286109 CXO 1 25867U 99040B 21152.24085197 .00000524 00000-0 00000-0 0 9998 2 25867 55.4444 255.8671 8297553 226.3910 359.9441 0.37807064 10373 ____________________________________________________________________ These 2-Line ...Continue Reading

[list_settings.list_name] Current TLEs

May 31st 2021 PST

HST 1 20580U 90037B 21151.18776539 .00000454 00000-0 16465-4 0 9999 2 20580 28.4687 179.3219 0002443 233.3263 174.8512 15.09650158508640 ISS (ZARYA) 1 25544U 98067A 21151.46971244 .00000619 00000-0 19447-4 0 9992 2 25544 51.6456 65.4128 0003332 51.6077 112.8776 15.48937272286008 CXO 1 25867U 99040B 21152.24085197 .00000524 00000-0 00000-0 0 9998 2 25867 55.4444 255.8671 8297553 226.3910 359.9441 0.37807064 10373 ____________________________________________________________________ These 2-Line ...Continue Reading

[list_settings.list_name] Current TLEs

May 30th 2021 PST

HST 1 20580U 90037B 21149.82056888 .00000463 00000-0 17026-4 0 9999 2 20580 28.4688 188.3685 0002475 217.8059 305.2833 15.09649346508231 ISS (ZARYA) 1 25544U 98067A 21150.17525219 .00001216 00000-0 30289-4 0 9997 2 25544 51.6454 71.8132 0003443 45.7908 95.8066 15.48936547285805 CXO 1 25867U 99040B 21152.24085197 .00000524 00000-0 00000-0 0 9998 2 25867 55.4444 255.8671 8297553 226.3910 359.9441 0.37807064 10373 ____________________________________________________________________ These 2-Line ...Continue Reading

[list_settings.list_name] Current TLEs

May 29th 2021 PST

HST 1 20580U 90037B 21148.82892572 .00000482 00000-0 18210-4 0 9993 2 20580 28.4689 194.9301 0002510 206.5984 316.4863 15.09648803508089 ISS (ZARYA) 1 25544U 98067A 21149.07106325 .00000442 00000-0 16218-4 0 9993 2 25544 51.6444 77.2731 0003280 43.2730 57.1193 15.48930226285635 CXO 1 25867U 99040B 21149.59749496 .00000554 00000-0 00000-0 0 9994 2 25867 55.5081 255.9676 8293350 226.3943 0.0359 0.37807039 10378 ____________________________________________________________________ These 2-Line ...Continue Reading

[list_settings.list_name] Current TLEs

May 28th 2021 PST

HST 1 20580U 90037B 21147.56434740 .00000545 00000-0 22004-4 0 9998 2 20580 28.4690 203.2975 0002570 192.5334 284.2785 15.09648314507891 ISS (ZARYA) 1 25544U 98067A 21148.30433307 .00000175 00000-0 11358-4 0 9994 2 25544 51.6437 81.0656 0003267 41.6619 100.5035 15.48927328285513 CXO 1 25867U 99040B 21149.59749496 .00000554 00000-0 00000-0 0 9994 2 25867 55.5081 255.9676 8293350 226.3943 0.0359 0.37807039 10378 ____________________________________________________________________ These 2-Line ...Continue Reading
  • This mailing list is a public mailing list - anyone may join or leave, at any time.
  • This mailing list is announce-only.

International Space Station (ISS) / Hubble Space Telescope (HST) / Chandra X-Ray Observatory Orbital Data via EMAIL

Privacy Policy:

Private list